Location: Newark
(48.5178°N, 4.2361°E)
Time: 00:39:05
(UTC+00:00)

Envisat - Pass Details

Date: 06 March 2021
Orbit: 764 x 766 km, 98.1° (Epoch: 11 April)

Event Time Altitude Azimuth Distance (km) Brightness Sun altitude
Rises 04:46:07 0° 20° (NNE) 3,245 6.7 -15.4°
Reaches altitude 10° 04:48:38 10° 30° (NNE) 2,313 6.0 -15.0°
Maximum altitude 04:53:18 35° 96° (E) 1,214 4.7 -14.3°
Drops below altitude 10° 04:57:56 10° 162° (SSE) 2,296 5.6 -13.5°
Sets 05:00:24 0° 171° (S) 3,217 6.3 -13.1°
